When you browse on this site, cookies collect data to enhance your experience and personalize the content and advertising you see.
Visit our Privacy Policy to learn more. By continuing to use the site, you agree to this use of cookies and data.
  • In Austria
  • List of Countries
  • For 7 days
  • Water Temperature
  • Weather Map
  • News
  • Weather Widgets
  • user-avatar
    Login

    Hourly Weather Olympia

    Today, 27 May, Wednesday

    Time Temperature Precipitation Wind Pressure Humidity
    00:00 +14°C° 0.3 mm 3 mps 761 mmHg 83%
    01:00 +13°C° 0.3 mm 3 mps 761 mmHg 83%
    02:00 +13°C° 0.1 mm 3 mps 761 mmHg 83%
    03:00 +13°C° 0.1 mm 3 mps 761 mmHg 83%
    04:00 +13°C° 0.1 mm 3 mps 761 mmHg 83%
    05:00 +14°C° 0.1 mm 3 mps 761 mmHg 76%
    06:00 +17°C° 0.1 mm 3 mps 761 mmHg 69%
    07:00 +19°C° 0.1 mm 3 mps 761 mmHg 62%
    08:00 +20°C° 0.3 mm 3 mps 762 mmHg 59%
    09:00 +21°C° 0.3 mm 4 mps 762 mmHg 56%
    10:00 +22°C° 0.3 mm 4 mps 762 mmHg 53%
    11:00 +21°C° 0.5 mm 5 mps 762 mmHg 56%
    12:00 +20°C° 0.5 mm 6 mps 762 mmHg 59%
    13:00 +18°C° 0.5 mm 7 mps 762 mmHg 62%
    14:00 +19°C° 0.2 mm 5 mps 762 mmHg 62%
    15:00 +19°C° 0.2 mm 4 mps 762 mmHg 61%
    16:00 +19°C° 0.2 mm 3 mps 762 mmHg 61%
    17:00 +18°C° 0 mm 3 mps 762 mmHg 65%
    18:00 +17°C° 0 mm 3 mps 762 mmHg 68%
    19:00 +15°C° 0 mm 4 mps 762 mmHg 71%
    20:00 +16°C° 0.1 mm 3 mps 763 mmHg 73%
    21:00 +14°C° 0.1 mm 3 mps 763 mmHg 75%
    22:00 +14°C° 0.1 mm 3 mps 763 mmHg 77%
    23:00 +14°C° 0 mm 3 mps 763 mmHg 76%

    Tomorrow, 28 May, Thursday

    Time Temperature Precipitation Wind Pressure Humidity
    00:00 +14°C° 0 mm 2 mps 763 mmHg 76%
    01:00 +14°C° 0 mm 1 mps 763 mmHg 76%
    02:00 +14°C° 0 mm 1 mps 763 mmHg 76%
    03:00 +14°C° 0 mm 1 mps 763 mmHg 75%
    04:00 +13°C° 0 mm 1 mps 763 mmHg 75%
    05:00 +16°C° 0 mm 1 mps 763 mmHg 68%
    06:00 +19°C° 0 mm 1 mps 763 mmHg 62%
    07:00 +21°C° 0 mm 1 mps 763 mmHg 55%
    08:00 +21°C° 0 mm 2 mps 763 mmHg 51%
    09:00 +23°C° 0 mm 2 mps 763 mmHg 47%
    10:00 +24°C° 0 mm 2 mps 763 mmHg 43%
    11:00 +24°C° 0.1 mm 3 mps 762 mmHg 43%
    12:00 +25°C° 0.1 mm 4 mps 762 mmHg 44%
    13:00 +25°C° 0.1 mm 4 mps 762 mmHg 44%
    14:00 +23°C° 0.1 mm 4 mps 762 mmHg 48%
    15:00 +23°C° 0.1 mm 5 mps 761 mmHg 51%
    16:00 +22°C° 0.1 mm 5 mps 761 mmHg 55%
    17:00 +21°C° 0 mm 5 mps 761 mmHg 63%
    18:00 +19°C° 0 mm 5 mps 761 mmHg 72%
    19:00 +16°C° 0 mm 5 mps 761 mmHg 80%
    20:00 +16°C° 0 mm 5 mps 762 mmHg 81%
    21:00 +15°C° 0 mm 4 mps 762 mmHg 83%
    22:00 +15°C° 0 mm 4 mps 762 mmHg 84%
    23:00 +16°C° 0 mm 3 mps 762 mmHg 85%

    Day after tomorrow, 29 May, Friday

    Time Temperature Precipitation Wind Pressure Humidity
    00:00 +14°C° 0 mm 3 mps 761 mmHg 85%
    01:00 +14°C° 0 mm 3 mps 761 mmHg 85%
    02:00 +14°C° 0 mm 3 mps 761 mmHg 85%
    03:00 +16°C° 0 mm 3 mps 761 mmHg 84%
    04:00 +16°C° 0 mm 2 mps 761 mmHg 84%
    05:00 +17°C° 0 mm 2 mps 761 mmHg 78%
    06:00 +19°C° 0 mm 2 mps 761 mmHg 73%
    07:00 +20°C° 0 mm 2 mps 761 mmHg 67%
    08:00 +21°C° 0.1 mm 2 mps 761 mmHg 63%
    09:00 +22°C° 0.1 mm 3 mps 761 mmHg 59%
    10:00 +24°C° 0.1 mm 3 mps 761 mmHg 54%
    11:00 +23°C° 0 mm 4 mps 761 mmHg 51%
    12:00 +25°C° 0 mm 4 mps 761 mmHg 48%
    13:00 +25°C° 0 mm 5 mps 761 mmHg 45%
    14:00 +23°C° 0 mm 5 mps 761 mmHg 48%
    15:00 +23°C° 0 mm 5 mps 760 mmHg 51%
    16:00 +22°C° 0 mm 6 mps 760 mmHg 55%
    17:00 +21°C° 0 mm 5 mps 760 mmHg 63%
    18:00 +19°C° 0 mm 5 mps 760 mmHg 72%
    19:00 +17°C° 0 mm 4 mps 760 mmHg 81%
    20:00 +17°C° 0 mm 4 mps 761 mmHg 82%
    21:00 +17°C° 0 mm 3 mps 761 mmHg 84%
    22:00 +16°C° 0 mm 3 mps 761 mmHg 85%
    23:00 +16°C° 0.1 mm 2 mps 761 mmHg 86%

    30 May, Saturday

    Time Temperature Precipitation Wind Pressure Humidity
    00:00 +16°C° 0.1 mm 2 mps 761 mmHg 87%
    01:00 +15°C° 0.1 mm 1 mps 760 mmHg 89%
    02:00 +15°C° 0.1 mm 1 mps 760 mmHg 89%
    03:00 +15°C° 0.1 mm 1 mps 760 mmHg 89%
    04:00 +15°C° 0.1 mm 2 mps 760 mmHg 89%
    05:00 +17°C° 0.1 mm 2 mps 760 mmHg 81%
    06:00 +19°C° 0.1 mm 2 mps 760 mmHg 73%
    07:00 +21°C° 0.1 mm 1 mps 760 mmHg 66%
    08:00 +23°C° 0 mm 2 mps 760 mmHg 59%
    09:00 +24°C° 0 mm 3 mps 761 mmHg 53%
    10:00 +25°C° 0 mm 4 mps 761 mmHg 46%
    11:00 +25°C° 0 mm 4 mps 761 mmHg 46%
    12:00 +25°C° 0 mm 4 mps 760 mmHg 45%
    13:00 +25°C° 0 mm 5 mps 760 mmHg 44%
    14:00 +25°C° 0 mm 5 mps 760 mmHg 47%
    15:00 +23°C° 0 mm 5 mps 760 mmHg 49%
    16:00 +22°C° 0 mm 5 mps 760 mmHg 52%
    17:00 +21°C° 0 mm 4 mps 760 mmHg 61%
    18:00 +19°C° 0 mm 3 mps 760 mmHg 70%
    19:00 +17°C° 0 mm 3 mps 760 mmHg 79%
    20:00 +17°C° 0 mm 2 mps 761 mmHg 80%
    21:00 +16°C° 0 mm 2 mps 761 mmHg 81%
    22:00 +16°C° 0 mm 2 mps 761 mmHg 82%
    23:00 +16°C° 0 mm 2 mps 761 mmHg 82%

    31 May, Sunday

    Time Temperature Precipitation Wind Pressure Humidity
    00:00 +15°C° 0 mm 2 mps 760 mmHg 82%
    01:00 +15°C° 0 mm 2 mps 760 mmHg 82%
    02:00 +15°C° 0 mm 1 mps 760 mmHg 80%
    03:00 +15°C° 0 mm 1 mps 760 mmHg 79%
    04:00 +15°C° 0 mm 1 mps 760 mmHg 77%
    05:00 +16°C° 0 mm 1 mps 760 mmHg 70%
    06:00 +19°C° 0 mm 1 mps 760 mmHg 63%
    07:00 +19°C° 0 mm 0 mps 761 mmHg 56%
    08:00 +22°C° 0 mm 1 mps 760 mmHg 52%
    09:00 +23°C° 0 mm 1 mps 760 mmHg 48%
    10:00 +24°C° 0 mm 1 mps 760 mmHg 44%
    11:00 +24°C° 0.2 mm 2 mps 760 mmHg 47%
    12:00 +24°C° 0.2 mm 3 mps 760 mmHg 49%
    13:00 +24°C° 0.2 mm 3 mps 760 mmHg 52%
    14:00 +22°C° 0.2 mm 4 mps 760 mmHg 57%
    15:00 +22°C° 0.2 mm 4 mps 759 mmHg 61%
    16:00 +21°C° 0.2 mm 5 mps 759 mmHg 65%
    17:00 +20°C° 0.2 mm 4 mps 759 mmHg 70%
    18:00 +19°C° 0.2 mm 4 mps 759 mmHg 75%
    19:00 +18°C° 0.2 mm 4 mps 759 mmHg 79%
    20:00 +17°C° 0 mm 4 mps 759 mmHg 80%
    21:00 +17°C° 0 mm 4 mps 759 mmHg 81%
    22:00 +15°C° 0 mm 4 mps 760 mmHg 81%
    23:00 +15°C° 0 mm 4 mps 759 mmHg 81%

    1 June, Monday

    Time Temperature Precipitation Wind Pressure Humidity
    00:00 +14°C° 0 mm 3 mps 759 mmHg 81%
    01:00 +14°C° 0 mm 3 mps 759 mmHg 81%
    02:00 +14°C° 0 mm 3 mps 759 mmHg 81%
    03:00 +13°C° 0 mm 3 mps 759 mmHg 81%
    04:00 +13°C° 0 mm 3 mps 759 mmHg 81%
    05:00 +16°C° 0 mm 3 mps 759 mmHg 75%
    06:00 +18°C° 0 mm 3 mps 759 mmHg 68%
    07:00 +20°C° 0 mm 2 mps 759 mmHg 62%
    08:00 +22°C° 0 mm 3 mps 759 mmHg 57%
    09:00 +23°C° 0 mm 4 mps 759 mmHg 52%
    10:00 +25°C° 0 mm 4 mps 759 mmHg 47%
    11:00 +26°C° 0 mm 5 mps 758 mmHg 46%
    12:00 +26°C° 0 mm 6 mps 758 mmHg 46%
    13:00 +26°C° 0 mm 6 mps 758 mmHg 45%
    14:00 +26°C° 0 mm 6 mps 758 mmHg 47%
    15:00 +24°C° 0 mm 6 mps 757 mmHg 48%
    16:00 +23°C° 0 mm 6 mps 757 mmHg 50%
    17:00 +22°C° 0 mm 6 mps 757 mmHg 59%
    18:00 +20°C° 0 mm 6 mps 757 mmHg 69%
    19:00 +17°C° 0 mm 5 mps 757 mmHg 79%
    20:00 +17°C° 0 mm 5 mps 758 mmHg 81%
    21:00 +17°C° 0 mm 4 mps 758 mmHg 83%
    22:00 +17°C° 0 mm 4 mps 758 mmHg 84%
    23:00 +16°C° 0 mm 3 mps 758 mmHg 84%
    Show more